Starlink 3748

operational
NORAD ID: 52267 Int'l Des: 2022-041 Owner: SPXS Country: US Constellation: starlink
LEOCIRCULAR

Über Starlink 3748

Beschreibung wird geladen...

Live-Position

3D-Globus wird geladen...

Nächste Überflüge

Höhenverlauf

Altitude vs Time

uPlot chart will show altitude changes over time

Zweizeiliger Elementsatz

1 52267U 22041G 25297.44138706 -.00002137 00000-0 -11621-3 0 9998
2 52267 53.2193 0.7669 0001458 95.2484 264.8675 15.08838353193796
Epoch: 24. Okt. 2025 • Age: 21 hours

Aktueller Status

Höhe 540.5 km
Geschwindigkeit 7.59 km/s
Subsatellitenpunkt 1.81°N, 144.74°W
Startdatum 21. Apr. 2022
Alter 3.5 years
Typ internet

Technische Details

Klassifizierung Payload
Masse 297.00 kg
Trockenmasse 275.00 kg
Gesamtmasse 297.00 kg
Länge 0.20 m
Durchmesser 2.80 m
Spannweite 9.00 m
Form Box + pan
Hersteller SPXS
Bus-Typ Starlink
Phasenstatus In Orbit
Besitzer/Staat SPXS/US

Große Konstellationen

Loading constellations...